DW0479 Weather Reports


Display with metric or nautical units.
time (UTC)temp
F
wind
direction
speed
MPH
gust
MPH
rain 1hr
in
rain 24hr
in
rain mn
in
humidity
%
barometer
mb
20260503014517 71 242 1.0 4.0 0.00 0.06 0.06 94 1012.2
20260503013514 71 239 1.0 3.0 0.00 0.06 0.06 94 1012.0
20260503012513 71 239 1.0 5.0 0.00 0.06 0.06 94 1011.9
20260503011518 71 237 2.0 5.0 0.00 0.06 0.06 94 1012.1
20260503010952 71 215 2.0 5.0 0.00 0.06 0.06 93 1011.9
20260503005501 71 343 1.0 3.0 0.00 0.06 0.06 93 1010.9
20260503004454 71 343 3.0 5.0 0.00 0.06 0.06 93 1010.8
20260503003440 72 263 1.0 3.0 0.00 0.06 0.06 92 1010.8
20260503002439 72 262 1.0 4.0 0.00 0.06 0.06 92 1010.7
20260503001438 72 260 2.0 7.0 0.00 0.06 0.06 92 1010.9
20260503000427 71 236 2.0 5.0 0.01 0.06 0.06 93 1010.7
20260502235428 72 202 1.0 6.0 0.01 0.06 0.06 93 1010.4
20260502234908 72 305 3.0 10.0 0.01 0.06 0.06 93 1010.7
20260502233421 72 195 4.0 10.0 0.01 0.06 0.06 93 1010.1
20260502232420 72 185 2.0 6.0 0.01 0.06 0.06 93 1010.4
20260502231418 72 177 2.0 6.0 0.01 0.06 0.06 93 1010.2
20260502230856 72 274 2.0 6.0 0.00 0.05 0.05 93 1010.9
20260502225416 72 204 2.0 6.0 0.01 0.05 0.05 93 1011.2
20260502224418 71 221 3.0 8.0 0.02 0.05 0.05 93 1010.9
20260502223418 71 160 3.0 7.0 0.03 0.05 0.05 93 1010.8
20260502222837 71 210 3.0 8.0 0.03 0.05 0.05 93 1011.1
20260502221407 71 231 2.0 7.0 0.04 0.05 0.05 93 1011.2
20260502220407 71 201 2.0 4.0 0.04 0.05 0.05 92 1011.4
20260502215402 71 278 2.0 7.0 0.03 0.04 0.04 91 1011.1
20260502214334 71 282 2.0 6.0 0.02 0.03 0.03 89 1011.2
20260502213325 72 267 4.0 9.0 0.01 0.02 0.02 88 1011.2
20260502212323 72 276 3.0 8.0 0.02 0.02 0.02 87 1010.8
20260502211326 73 280 3.0 8.0 0.01 0.01 0.01 87 1010.6
20260502210310 72 285 3.0 7.0 0.01 0.01 0.01 87 1010.7
20260502205305 72 271 2.0 6.0 0.01 0.01 0.01 88 1010.9
20260502204300 72 310 3.0 9.0 0.01 0.01 0.01 87 1010.8
20260502203259 73 322 6.0 19.0 0.01 0.01 0.01 82 1011.2
20260502202257 78 350 11.0 30.0 0.00 0.00 0.00 67 1011.6
20260502201257 84 291 6.0 14.0 0.00 0.00 0.00 69 1010.8
20260502200255 85 240 6.0 14.0 0.00 0.00 0.00 68 1010.4
20260502195256 85 352 8.0 18.0 0.00 0.00 0.00 68 1010.6
20260502194731 86 260 8.0 17.0 0.00 0.00 0.00 66 1010.6
20260502193249 86 231 8.0 17.0 0.00 0.00 0.00 67 1010.4
20260502192247 86 271 8.0 18.0 0.00 0.00 0.00 66 1010.4
20260502192213 86 265 7.0 17.0 0.00 0.00 0.00 65 1010.6
20260502190248 86 239 6.0 14.0 0.00 0.00 0.00 65 1010.6
20260502185246 87 239 8.0 18.0 0.00 0.00 0.00 63 1010.5
20260502184242 87 235 8.0 16.0 0.00 0.00 0.00 62 1010.7
20260502183242 87 231 10.0 18.0 0.00 0.00 0.00 61 1010.8
20260502182238 88 259 9.0 18.0 0.00 0.00 0.00 60 1010.7
20260502181237 88 225 9.0 23.0 0.00 0.00 0.00 60 1010.7
20260502180720 88 236 11.0 21.0 0.00 0.00 0.00 59 1010.6
20260502170229 89 249 8.0 16.0 0.00 0.00 0.00 62 1010.8
20260502164227 89 234 9.0 19.0 0.00 0.00 0.00 59 1011.0
20260502163227 89 246 7.0 20.0 0.00 0.00 0.00 61 1011.1
20260502162708 88 262 7.0 17.0 0.00 0.00 0.00 64 1011.1
20260502162129 87 234 8.0 17.0 0.00 0.00 0.00 66 1011.3
20260502160223 86 235 7.0 17.0 0.00 0.00 0.00 66 1011.4
20260502151749 84 235 6.0 15.0 0.00 0.00 0.00 69 1011.6
20260502150748 84 225 7.0 13.0 0.00 0.00 0.00 69 1011.6
20260502130740 78 216 4.0 10.0 0.00 0.00 0.00 81 1010.8
20260502123741 75 170 4.0 9.0 0.00 0.00 0.00 89 1010.7
20260502122731 74 177 5.0 10.0 0.00 0.00 0.00 93 1010.5
20260502121734 73 188 4.0 10.0 0.00 0.00 0.00 95 1010.5
20260502120730 72 189 2.0 6.0 0.00 0.00 0.00 96 1010.6
20260502115727 72 171 2.0 6.0 0.00 0.00 0.00 96 1010.6
20260502114724 71 196 1.0 3.0 0.00 0.00 0.00 96 1010.6
20260502113709 71 196 0.0 2.0 0.00 0.00 0.00 96 1010.5
20260502112700 70 196 1.0 4.0 0.00 0.00 0.00 96 1010.4
20260502111659 70 193 2.0 4.0 0.00 0.00 0.00 96 1010.4
20260502110658 69 193 1.0 3.0 0.00 0.00 0.00 95 1010.2
20260502105658 69 193 0.0 2.0 0.00 0.00 0.00 95 1010.2
20260502104644 69 193 0.0 2.0 0.00 0.00 0.00 95 1010.1
20260502104121 69 193 0.0 2.0 0.00 0.00 0.00 95 1009.8
20260502102643 69 193 2.0 5.0 0.00 0.00 0.00 95 1009.9
20260502101642 69 246 2.0 4.0 0.00 0.00 0.00 95 1010.0
20260502100642 69 252 1.0 3.0 0.00 0.00 0.00 95 1010.1
20260502090631 69 258 0.0 2.0 0.00 0.00 0.00 94 1010.6
20260502070617 70 291 1.0 3.0 0.00 0.00 0.00 92 1010.8
20260502070052 70 291 1.0 2.0 0.00 0.00 0.00 92 1010.8
20260502065102 70 292 0.0 2.0 0.00 0.00 0.00 91 1011.0
20260502063616 70 291 0.0 2.0 0.00 0.00 0.00 90 1011.0
20260502062616 70 292 1.0 3.0 0.00 0.00 0.00 90 1011.0
20260502062533 70 291 2.0 3.0 0.00 0.00 0.00 89 1011.2
20260502060615 70 292 1.0 3.0 0.00 0.00 0.00 88 1011.1
20260502055618 70 308 1.0 2.0 0.00 0.00 0.00 87 1011.2
20260502054616 70 308 1.0 2.0 0.00 0.00 0.00 86 1011.2
20260502054023 70 310 2.0 3.0 0.00 0.00 0.00 86 1011.5
20260502053650 70 308 2.0 3.0 0.00 0.00 0.00 86 1011.4
20260502051610 71 310 0.0 1.0 0.00 0.00 0.00 85 1011.6
20260502051103 70 310 0.0 1.0 0.00 0.00 0.00 85 1011.5
20260502045609 71 310 0.0 0.0 0.00 0.00 0.00 84 1011.5
20260502044611 71 310 0.0 0.0 0.00 0.00 0.00 83 1011.6
20260502043613 72 310 0.0 0.0 0.00 0.00 0.00 83 1011.6
20260502042607 72 310 0.0 0.0 0.00 0.00 0.00 82 1011.7
20260502041615 72 310 0.0 0.0 0.00 0.00 0.00 81 1011.7
20260502041047 73 310 0.0 0.0 0.00 0.00 0.00 80 1011.7
20260502035607 73 310 0.0 1.0 0.00 0.00 0.00 79 1011.8
20260502034608 74 310 0.0 1.0 0.00 0.00 0.00 78 1011.8
20260502033607 74 310 0.0 0.0 0.00 0.00 0.00 78 1011.7
20260502032606 74 310 0.0 0.0 0.00 0.00 0.00 77 1011.8
20260502031602 75 310 0.0 2.0 0.00 0.00 0.00 76 1011.7
20260502030603 76 310 0.0 2.0 0.00 0.00 0.00 74 1011.7
20260502030040 77 310 0.0 3.0 0.00 0.00 0.00 73 1011.7
20260502024553 77 310 2.0 4.0 0.00 0.00 0.00 71 1011.7
20260502023547 78 314 2.0 4.0 0.00 0.00 0.00 70 1011.7
20260502023455 78 308 2.0 5.0 0.00 0.00 0.00 69 1011.4
20260502021538 79 321 3.0 7.0 0.00 0.00 0.00 66 1011.5
20260502021009 80 289 2.0 6.0 0.00 0.00 0.00 63 1011.5
20260502015530 80 267 3.0 8.0 0.00 0.00 0.00 62 1011.3